Weather Roundup
Issued by NWS

Home | Current Version | Previous Version | Graphics & Text | Print | Product List | Glossary Off
Versions: 1 2 3 4 5 6 7 8 9 10 11 12 13 14 15 16 17 18 19 20 21 22 23 24 25 26 27 28 29 30 31 32 33 34 35 36 37 38 39 40 41 42 43 44 45 46 47 48 49 50

421
NZUS93 KARX 060510
HRRWXR

CURRENT HOURLY OBSERVATIONS ACROSS
MUCH OF THE UPPER MISSISSIPPI VALLEY
NATIONAL WEATHER SERVICE LA CROSSE WI
1100 PM CST FRI FEB 05 2016


...SOUTHEAST MINNESOTA...


CITY           SKY/WX    TMP DP  RH WIND       PRES   REMARKS
ROCHESTER      CLOUDY    23  20  88 SW16      30.19S WCI  10
ROCHESTER/MAYO CLOUDY    25  22  89 SW7G16    30.20F WCI  17
WINONA         CLOUDY    28  21  74 S6        30.23F WCI  22
AUSTIN         CLOUDY    23  21  93 S9        30.20S FOG     WCI  13
ALBERT LEA     CLOUDY    25  25 100 SW8       30.19F FOG     WCI  16
DODGE CENTER   CLOUDY    21  21 100 SW15      30.17S FOG     WCI   8
PRESTON        CLOUDY    22  19  89 S10       30.20F WCI  11
OWATONNA       CLOUDY    25  23  93 SW12      30.18S FOG     WCI  14
FARIBAULT      CLOUDY    25  23  93 SW8       30.19S FOG     WCI  16
$$

...ELSEWHERE IN MINNESOTA...


CITY           SKY/WX    TMP DP  RH WIND       PRES   REMARKS
MINNEAPOLIS    CLOUDY    26  21  81 SW6       30.18F WCI  19
INTNL FALLS    CLOUDY    21  15  78 W8        30.03S WCI  11
DULUTH         CLOUDY    23  14  68 W13       30.05F WCI  11
RED WING       CLOUDY    27  19  74 W9        30.20S WCI  17
REDWOOD FALLS  CLOUDY    27  23  85 W7        30.18S WCI  19
MANKATO        CLOUDY    27  21  80 SW8       30.18S WCI  18
WORTHINGTON    CLOUDY    25  21  86 W9        30.19S WCI  15
FAIRMONT       CLOUDY    27  21  80 SW8       30.18S WCI  18
$$

...SOUTHWEST WISCONSIN...


CITY           SKY/WX    TMP DP  RH WIND       PRES   REMARKS
LA CROSSE      CLOUDY    24  17  74 S7        30.25F WCI  16
PRAIRIE DU CHI CLOUDY    27  19  70 SW3       30.28F
BOSCOBEL       CLOUDY    26  21  81 W3        30.29S
LONE ROCK      CLOUDY    26  18  71 SW7       30.28S WCI  18
PLATTEVILLE    PTCLDY    25  22  88 S3        30.27F
FORT MC COY    CLOUDY    24  18  75 SW5       30.25F WCI  19
CAMP DOUGLAS   CLOUDY    25  21  86 W5        30.24S WCI  19
VIROQUA        CLOUDY    23  20  86 SW9       30.22F WCI  13
WIS DELLS      CLOUDY    23  16  72 SW5       30.25R WCI  17
$$

...ELSEWHERE IN WISCONSIN...


CITY           SKY/WX    TMP DP  RH WIND       PRES   REMARKS
MILWAUKEE      CLOUDY    29  19  66 SW6       30.28F WCI  23
MADISON        CLOUDY    27  18  69 S9        30.26F WCI  18
GREEN BAY      CLOUDY    22  17  81 SW3       30.23F
EAU CLAIRE     CLOUDY    23  15  71 SW9       30.19F WCI  13
BLACK RVR FLS  CLOUDY    24  16  71 SW5       30.23F WCI  18
MEDFORD        FLURRIES  20  15  82 SW9       30.15F WCI   9
WAUSAU         FLURRIES  23  13  65 SW8       30.17F WCI  14
WIS RAPIDS     FLURRIES  23  16  74 SW7       30.23F WCI  15
MARSHFIELD     CLOUDY    22  13  68 SW10      30.18F WCI  11
RICE LAKE      CLOUDY    24  19  83 S6        30.17F WCI  17
$$

...NORTHEAST IOWA...


CITY           SKY/WX    TMP DP  RH WIND       PRES   REMARKS
WATERLOO       CLOUDY    26  22  84 S8        30.26F WCI  18
DUBUQUE        CLOUDY    24  21  88 SW8       30.27S WCI  15
DECORAH        CLOUDY    25  21  86 SW7       30.23S WCI  17
MASON CITY     CLOUDY    25  24  96 SW10      30.22F FOG     WCI  15
CHARLES CITY   CLOUDY    25  25 100 S10       30.24F WCI  15
OELWEIN        CLOUDY    25  23  93 S7        30.26F WCI  17
$$

...ELSEWHERE IN IOWA...


CITY           SKY/WX    TMP DP  RH WIND       PRES   REMARKS
DES MOINES     CLOUDY    30  25  81 S8        30.25F WCI  22
IOWA CITY      CLOUDY    27  23  85 SE5       30.31F WCI  22
FORT DODGE     CLOUDY    28  25  86 S6        30.23F WCI  22
MARSHALLTOWN   CLOUDY    27  24  89 S8        30.25S WCI  19
CEDAR RAPIDS   CLOUDY    27  23  85 S6        30.28S WCI  20
$$

...NORTHERN ILLINOIS...


CITY           SKY/WX    TMP DP  RH WIND       PRES   REMARKS
CHICAGO-OHARE  PTCLDY    27  21  78 SW5       30.31S WCI  22
CHICAGO-MIDWAY PTCLDY    28  20  71 SW7       30.32F WCI  21
MOLINE         CLOUDY    29  22  75 S5        30.31F WCI  24
ROCKFORD       MOCLDY    28  22  78 S3        30.32F
PEORIA         CLOUDY    26  20  77 CALM      30.33F
$$

NOTE: "FAIR" INDICATES FEW OR NO CLOUDS BELOW 12,000 FEET WITH NO
SIGNIFICANT WEATHER AND/OR OBSTRUCTIONS TO VISIBILITY. WIND
SPEEDS ARE IN MILES-PER-HOUR.




USA.gov is the U.S. government's official web portal to all federal, state and local government web resources and services.